• en France
  • Liste des pays
  • À 7 jours
  • Température de l'eau
  • Carte satellitaire
  • Carte météo
  • Widgets météo
  • user-avatar
    Se connecter

    Météo par heure à Larne

    Ce jour, 20 Juin, Mercredi

    Heure Température Précipitation Vent Pression Humidité
    00:00 +16°C° 0 mm 7 m/s 754 mmHg 96%
    01:00 +16°C° 0,6 mm 7 m/s 754 mmHg 96%
    02:00 +16°C° 0,6 mm 7 m/s 754 mmHg 96%
    03:00 +16°C° 0,6 mm 7 m/s 754 mmHg 95%
    04:00 +14°C° 0,4 mm 7 m/s 755 mmHg 95%
    05:00 +12°C° 0,4 mm 7 m/s 755 mmHg 95%
    06:00 +9°C° 0 mm 7 m/s 756 mmHg 93%
    07:00 +10°C° 0 mm 7 m/s 757 mmHg 88%
    08:00 +11°C° 0 mm 8 m/s 758 mmHg 82%
    09:00 +11°C° 0 mm 8 m/s 759 mmHg 77%
    10:00 +12°C° 0 mm 8 m/s 759 mmHg 73%
    11:00 +12°C° 0 mm 7 m/s 760 mmHg 69%
    12:00 +14°C° 0 mm 7 m/s 760 mmHg 65%
    13:00 +14°C° 0 mm 7 m/s 761 mmHg 65%
    14:00 +14°C° 0 mm 6 m/s 761 mmHg 66%
    15:00 +13°C° 0 mm 6 m/s 761 mmHg 66%
    16:00 +13°C° 0 mm 6 m/s 761 mmHg 68%
    17:00 +11°C° 0 mm 6 m/s 762 mmHg 71%
    18:00 +11°C° 0 mm 6 m/s 762 mmHg 73%
    19:00 +10°C° 0,1 mm 6 m/s 762 mmHg 75%
    20:00 +10°C° 0,1 mm 7 m/s 762 mmHg 77%
    21:00 +9°C° 0,1 mm 8 m/s 762 mmHg 79%
    22:00 +7°C° 0 mm 8 m/s 763 mmHg 78%
    23:00 +7°C° 0 mm 8 m/s 763 mmHg 77%

    Demain, 21 Juin, Jeudi

    Heure Température Précipitation Vent Pression Humidité
    00:00 +6°C° 0 mm 8 m/s 763 mmHg 77%
    01:00 +7°C° 0 mm 8 m/s 764 mmHg 77%
    02:00 +7°C° 0 mm 8 m/s 764 mmHg 78%
    03:00 +7°C° 0 mm 8 m/s 764 mmHg 78%
    04:00 +7°C° 0 mm 8 m/s 765 mmHg 78%
    05:00 +8°C° 0 mm 7 m/s 765 mmHg 78%
    06:00 +9°C° 0 mm 7 m/s 766 mmHg 77%
    07:00 +10°C° 0 mm 7 m/s 766 mmHg 74%
    08:00 +11°C° 0 mm 8 m/s 767 mmHg 71%
    09:00 +12°C° 0 mm 8 m/s 767 mmHg 68%
    10:00 +12°C° 0 mm 8 m/s 768 mmHg 66%
    11:00 +12°C° 0 mm 8 m/s 768 mmHg 65%
    12:00 +13°C° 0 mm 8 m/s 768 mmHg 63%
    13:00 +14°C° 0 mm 7 m/s 769 mmHg 63%
    14:00 +14°C° 0 mm 7 m/s 769 mmHg 64%
    15:00 +14°C° 0 mm 7 m/s 769 mmHg 64%
    16:00 +12°C° 0 mm 7 m/s 769 mmHg 66%
    17:00 +12°C° 0 mm 7 m/s 769 mmHg 69%
    18:00 +11°C° 0 mm 7 m/s 770 mmHg 72%
    19:00 +10°C° 0 mm 7 m/s 770 mmHg 76%
    20:00 +9°C° 0 mm 7 m/s 770 mmHg 80%
    21:00 +9°C° 0 mm 6 m/s 771 mmHg 85%
    22:00 +8°C° 0 mm 6 m/s 771 mmHg 87%
    23:00 +8°C° 0 mm 6 m/s 771 mmHg 89%

    Après-demain, 22 Juin, Vendredi

    Heure Température Précipitation Vent Pression Humidité
    00:00 +7°C° 0 mm 6 m/s 771 mmHg 91%
    01:00 +7°C° 0 mm 5 m/s 771 mmHg 91%
    02:00 +7°C° 0 mm 5 m/s 771 mmHg 92%
    03:00 +7°C° 0 mm 5 m/s 771 mmHg 93%
    04:00 +7°C° 0 mm 5 m/s 771 mmHg 91%
    05:00 +8°C° 0 mm 5 m/s 771 mmHg 89%
    06:00 +9°C° 0 mm 5 m/s 771 mmHg 87%
    07:00 +10°C° 0 mm 5 m/s 771 mmHg 83%
    08:00 +12°C° 0 mm 5 m/s 771 mmHg 79%
    09:00 +13°C° 0 mm 5 m/s 771 mmHg 75%
    10:00 +13°C° 0 mm 5 m/s 771 mmHg 72%
    11:00 +14°C° 0 mm 5 m/s 771 mmHg 68%
    12:00 +15°C° 0 mm 5 m/s 771 mmHg 65%
    13:00 +15°C° 0 mm 5 m/s 771 mmHg 65%
    14:00 +15°C° 0 mm 5 m/s 770 mmHg 65%
    15:00 +15°C° 0 mm 5 m/s 770 mmHg 65%
    16:00 +15°C° 0 mm 5 m/s 770 mmHg 68%
    17:00 +14°C° 0 mm 5 m/s 770 mmHg 71%
    18:00 +14°C° 0 mm 5 m/s 770 mmHg 73%
    19:00 +12°C° 0 mm 5 m/s 770 mmHg 79%
    20:00 +11°C° 0 mm 4 m/s 770 mmHg 84%
    21:00 +10°C° 0 mm 4 m/s 770 mmHg 90%
    22:00 +8°C° 0 mm 4 m/s 770 mmHg 91%
    23:00 +8°C° 0 mm 4 m/s 770 mmHg 92%

    23 Juin, Samedi

    Heure Température Précipitation Vent Pression Humidité
    00:00 +8°C° 0 mm 3 m/s 770 mmHg 94%
    01:00 +8°C° 0 mm 3 m/s 770 mmHg 94%
    02:00 +8°C° 0 mm 3 m/s 769 mmHg 94%
    03:00 +7°C° 0 mm 3 m/s 769 mmHg 94%
    04:00 +8°C° 0 mm 3 m/s 769 mmHg 93%
    05:00 +9°C° 0 mm 3 m/s 769 mmHg 91%
    06:00 +10°C° 0 mm 3 m/s 769 mmHg 90%
    07:00 +11°C° 0 mm 3 m/s 769 mmHg 84%
    08:00 +12°C° 0 mm 3 m/s 769 mmHg 78%
    09:00 +14°C° 0 mm 3 m/s 768 mmHg 71%
    10:00 +16°C° 0 mm 3 m/s 768 mmHg 68%
    11:00 +16°C° 0 mm 3 m/s 768 mmHg 65%
    12:00 +17°C° 0 mm 2 m/s 768 mmHg 62%
    13:00 +18°C° 0 mm 2 m/s 768 mmHg 63%
    14:00 +18°C° 0 mm 2 m/s 768 mmHg 63%
    15:00 +18°C° 0 mm 2 m/s 767 mmHg 64%
    16:00 +18°C° 0 mm 2 m/s 767 mmHg 67%
    17:00 +17°C° 0 mm 2 m/s 767 mmHg 70%
    18:00 +16°C° 0 mm 2 m/s 767 mmHg 73%
    19:00 +15°C° 0 mm 2 m/s 767 mmHg 79%
    20:00 +13°C° 0 mm 1 m/s 767 mmHg 84%
    21:00 +12°C° 0 mm 1 m/s 767 mmHg 89%
    22:00 +11°C° 0 mm 1 m/s 767 mmHg 90%
    23:00 +11°C° 0 mm 1 m/s 767 mmHg 90%

    24 Juin, Dimanche

    Heure Température Précipitation Vent Pression Humidité
    00:00 +11°C° 0 mm 1 m/s 767 mmHg 91%
    01:00 +10°C° 0 mm 1 m/s 766 mmHg 91%
    02:00 +10°C° 0 mm 1 m/s 766 mmHg 92%
    03:00 +10°C° 0 mm 1 m/s 766 mmHg 93%
    04:00 +11°C° 0 mm 1 m/s 766 mmHg 92%
    05:00 +12°C° 0 mm 1 m/s 766 mmHg 91%
    06:00 +13°C° 0 mm 1 m/s 766 mmHg 90%
    07:00 +15°C° 0 mm 1 m/s 766 mmHg 84%
    08:00 +16°C° 0 mm 1 m/s 766 mmHg 77%
    09:00 +19°C° 0 mm 1 m/s 766 mmHg 71%
    10:00 +20°C° 0 mm 1 m/s 766 mmHg 67%
    11:00 +21°C° 0 mm 1 m/s 766 mmHg 63%
    12:00 +22°C° 0 mm 1 m/s 766 mmHg 60%
    13:00 +22°C° 0 mm 1 m/s 766 mmHg 60%
    14:00 +23°C° 0 mm 2 m/s 766 mmHg 60%
    15:00 +23°C° 0 mm 2 m/s 766 mmHg 60%
    16:00 +23°C° 0 mm 2 m/s 766 mmHg 65%
    17:00 +21°C° 0 mm 3 m/s 765 mmHg 69%
    18:00 +21°C° 0 mm 3 m/s 765 mmHg 74%
    19:00 +19°C° 0 mm 3 m/s 765 mmHg 80%
    20:00 +18°C° 0 mm 3 m/s 765 mmHg 86%
    21:00 +16°C° 0 mm 3 m/s 766 mmHg 92%
    22:00 +16°C° 0 mm 3 m/s 766 mmHg 92%
    23:00 +14°C° 0 mm 3 m/s 766 mmHg 92%

    25 Juin, Lundi

    Heure Température Précipitation Vent Pression Humidité
    00:00 +14°C° 0 mm 3 m/s 766 mmHg 92%
    01:00 +14°C° 0 mm 2 m/s 765 mmHg 93%
    02:00 +14°C° 0 mm 2 m/s 765 mmHg 93%
    03:00 +14°C° 0 mm 2 m/s 765 mmHg 93%
    04:00 +15°C° 0 mm 2 m/s 765 mmHg 92%
    05:00 +15°C° 0 mm 2 m/s 765 mmHg 91%
    06:00 +16°C° 0 mm 2 m/s 765 mmHg 90%
    07:00 +17°C° 0 mm 2 m/s 765 mmHg 86%
    08:00 +19°C° 0 mm 2 m/s 765 mmHg 82%
    09:00 +20°C° 0 mm 3 m/s 765 mmHg 77%
    10:00 +21°C° 0 mm 3 m/s 765 mmHg 74%
    11:00 +21°C° 0 mm 3 m/s 765 mmHg 71%
    12:00 +22°C° 0 mm 4 m/s 765 mmHg 67%
    13:00 +22°C° 0 mm 4 m/s 765 mmHg 66%
    14:00 +22°C° 0 mm 4 m/s 765 mmHg 65%
    15:00 +22°C° 0 mm 4 m/s 765 mmHg 64%
    16:00 +22°C° 0 mm 4 m/s 764 mmHg 67%
    17:00 +21°C° 0 mm 4 m/s 764 mmHg 70%
    18:00 +21°C° 0 mm 4 m/s 764 mmHg 73%
    19:00 +20°C° 0 mm 3 m/s 764 mmHg 77%
    20:00 +18°C° 0 mm 3 m/s 765 mmHg 82%
    21:00 +16°C° 0 mm 3 m/s 765 mmHg 86%
    22:00 +16°C° 0 mm 3 m/s 765 mmHg 87%
    23:00 +16°C° 0 mm 2 m/s 765 mmHg 87%
    Voir plus